Regional Weather Roundup
Issued by NWS

Home | Current Version | Previous Version | Text Only | Print | Product List | Glossary Off
Versions: 1 2 3 4 5 6 7 8 9 10 11 12 13 14 15 16 17 18 19 20 21 22 23 24 25 26 27 28 29 30 31 32 33 34 35 36 37 38 39 40 41 42 43 44 45 46 47 48 49 50

000
ASUS43 KBIS 050601
RWRND

NORTH DAKOTA REGIONAL WEATHER ROUNDUP
NATIONAL WEATHER SERVICE BISMARCK ND
1200 AM CST THU MAR 05 2015

NOTE: "FAIR" INDICATES FEW OR NO CLOUDS BELOW 12,000 FEET WITH NO
SIGNIFICANT WEATHER AND/OR OBSTRUCTIONS TO VISIBILITY.


NDZ001>003-009>011-017-050700-
NORTHWEST NORTH DAKOTA

CITY           SKY/WX    TMP DP  RH WIND       PRES   REMARKS
WILLISTON      PTCLDY     0 -10  63 S6        30.21F WCI -12
MINOT          PTCLDY    -9 -16  71 S9        30.26F WCI -26
MINOT AFB      PTCLDY   -12 -18  75 SW8       30.26F WCI -28
$$

NDZ018>021-031>035-040>046-050700-
SOUTHWEST NORTH DAKOTA

CITY           SKY/WX    TMP DP  RH WIND       PRES   REMARKS
BISMARCK       CLEAR     -5 -11  75 E3        30.34S
6HR MIN TEMP:  -6; 6HR MAX TEMP:   5;

DICKINSON      PTCLDY    -1  -9  68 S9        30.17F WCI -16
GARRISON         N/A    -10 -15  78 S3        30.27F
6HR MIN TEMP: -14; 6HR MAX TEMP:  -1;

HETTINGER ARPT CLEAR      0  -9  65 SE6       30.22S WCI -12
$$

NDZ004>008-012>016-024-026-027-054-050700-
NORTHEAST NORTH DAKOTA

CITY           SKY/WX    TMP DP  RH WIND       PRES   REMARKS
GRAND FORKS    CLEAR    -14 -19  79 SW6       30.40S WCI -28
GRND FRKS AFB  CLEAR    -10 -18  67 W5        30.38F WCI -21
DEVILS LAKE    PTCLDY    -9 -17  70 SW7       30.32S WCI -24
$$

NDZ022-023-025-028>030-036>039-047>053-050700-
SOUTHEAST NORTH DAKOTA

CITY           SKY/WX    TMP DP  RH WIND       PRES   REMARKS
FARGO          CLEAR     -6 -14  68 W7        30.43S WCI -20
6HR MIN TEMP:  -6; 6HR MAX TEMP:   3;

JAMESTOWN      CLEAR    -11 -17  75 SW5       30.35F WCI -23
$$




USA.gov is the U.S. government's official web portal to all federal, state and local government web resources and services.